• Join FlightAware (Why Join?)
  • Login
  • US Flag 
Trick or treat! (Boo!!) 
10:13AM EDT


 

Airport Tracker/Info


-or-


 

Live Flight TrackerFlight Track Log ✈ PDT4170 ✈ 20-Jun-2013 ✈ KTRI - KCLT

Flight Track Log - Related Links

Times and Time Zones

All times are in EDT time to prevent confusion due to time zone crossing. See the PDT4170 flight status page for this flight to view local times or setup timezone preferences in your user account.

Time Position Orientation Groundspeed Altitude Reporting Facility
EDT Latitude Longitude Course Direction KTS MPH feet Rate Location/Type
02:38PM 36.4089 -82.4650 158° South 154 177 4,400  Level Atlanta Center
02:39PM 36.3656 -82.2780 99° East  Level Estimated
02:39PM 36.3692 -82.4581 172° South 161 185 5,600  Level Atlanta Center
02:40PM 36.3290 -82.2349 90° East  Level Estimated
02:40PM 36.3333 -82.4228 142° Southeast 157 181 7,100  Level Atlanta Center
02:41PM 36.2924 -82.1919 158° South  Level Estimated
02:41PM 36.3017 -82.3822 134° Southeast 164 189 8,500  Level Atlanta Center
02:42PM 36.3250 -82.1442 50° Northeast  Level FlightAware Approximate
02:42PM 36.2678 -82.3442 138° Southeast 164 189 10,000  Level Atlanta Center
02:43PM 36.2784 -82.0932 158° South  Level Estimated
02:43PM 36.2236 -82.3219 158° South 164 189 11,000  Level Atlanta Center
02:44PM 36.1872 -82.2689 130° Southeast 184 212 11,100  Climbing Atlanta Center
02:45PM 36.1489 -82.2131 130° Southeast 207 238 11,000 -60 Descending Atlanta Center
02:46PM 36.1044 -82.1575 135° Southeast 227 261 11,000  Level Atlanta Center
02:47PM 36.0533 -82.0997 138° Southeast 234 269 11,000  Level Atlanta Center
02:48PM 36.0067 -82.0442 136° Southeast 240 276 11,000  Level Atlanta Center
02:49PM 35.9578 -81.9892 138° Southeast 240 276 11,000  Level Atlanta Center
02:50PM 35.9067 -81.9289 136° Southeast 240 276 11,000  Level Atlanta Center
02:51PM 35.8514 -81.8661 137° Southeast 240 276 11,000  Level Atlanta Center
02:52PM 35.8022 -81.8086 137° Southeast 240 276 11,000  Level Atlanta Center
02:53PM 35.7511 -81.7511 138° Southeast 240 276 11,000  Level Atlanta Center
02:53PM 35.7150 -81.7086 136° Southeast 251 289 11,000  Level Atlanta Center
02:55PM 35.6489 -81.6364 138° Southeast 240 276 11,000  Level Atlanta Center
02:56PM 35.5978 -81.5792 138° Southeast 245 282 11,000  Level Atlanta Center
02:57PM 35.5547 -81.5167 130° Southeast 245 282 11,000  Level Atlanta Center
02:58PM 35.5156 -81.4439 123° Southeast 250 288 11,000  Level Atlanta Center
02:59PM 35.4703 -81.3792 131° Southeast 250 288 11,000  Level Atlanta Center
03:00PM 35.4231 -81.3194 134° Southeast 245 282 11,000 -540 Level Atlanta Center
03:01PM 35.3733 -81.2369 126° Southeast 266 306 9,900 -960 Descending Atlanta Center
03:02PM 35.3322 -81.1772 130° Southeast 261 300 9,100 -540 Descending Atlanta Center
03:03PM 35.2889 -81.1050 126° Southeast 261 300 9,000 -240 Descending Atlanta Center
03:04PM 35.2214 -81.0719 158° South 246 283 8,700 -660 Descending Atlanta Center
03:05PM 35.1419 -81.0669 177° South 245 282 7,600 -1,020 Descending Atlanta Center
03:06PM 35.0769 -81.0592 174° South 237 273 6,600 -840 Descending Atlanta Center
03:07PM 35.0164 -81.0511 174° South 231 266 6,000 -420 Descending Atlanta Center
03:08PM 34.9492 -81.0383 171° South 229 264 5,800 -540 Descending Atlanta Center
03:09PM 34.9064 -80.9969 142° Southeast 220 253 5,000 -420 Descending Atlanta Center
03:10PM 34.9472 -80.9525 42° Northeast 221 254 5,000 -420 Level Atlanta Center
03:11PM 35.0203 -80.9522 360° North 232 267 4,200 -720 Descending Atlanta Center